Project,Study,Ord_Occ,Event_Num,Cast_ID,Date_Time_UTC,Date_Time_PST,Lat_Dec,Lon_Dec,Sta_ID,Line,Sta,Depth,Pressure,PrQ,Temp1,Temp1Q,Temp2,Temp2Q,TempAve,Salt1,Salt1Q,Salt1_Corr,Salt2,Salt2Q,Salt2_Corr,SaltAve_Corr,Ox1,Ox1Q,Ox1_CruiseCorr,Ox1_StaCorr,Ox2,Ox2Q,Ox2_CruiseCorr,Ox2_StaCorr,OxAve_StaCorr,Ox1uM,Ox1uM_CruiseCorr,Ox1uM_StaCorr,Ox2uM,Ox2uM_CruiseCorr,Ox2uM_StaCorr,OxAveuM_StaCorr,FluorV,FluorQ,EstChl_CruiseCorr,EstChl_StaCorr,ISUSV,ISUSQ,EstNO3_CruiseCorr,EstNO3_StaCorr,SigThetaTS1,SigThetaTS1Q,SigThetaTS2,SigThetaTS2Q,BAT,XMiss,TransQ,pH,pHQ,SPAR,SPARQ,PAR,PARQ,PoT1,PoT2,DynHt,SVA,OxSat1,OxSat2,BTL_Depth,BTL_Temp,SaltB,OxB,OxBuM,Chl-a,Phaeo,NO3,NO2,NH4,PO4,SIL
CalCOFI,2007SR,054,56,2007_054d,23-Jul-2020 14:40:29,23-Jul-2020 06:40:29,33.87818,-120.13204,083.3 051.0,083.3,051.0,1.000,1.007,,15.4009,,15.3981,,15.3995,33.6578,,33.6580,33.6582,,33.6598,33.6589,5.0798,,5.2902,5.3998,4.0803,,5.7997,4.3413,4.8706,221.363,230.5927,235.7249,177.807,375.8775,189.8139,212.7694,0.1862,,1.7689,2.4086,-99.0,,-99.0,-99.0,24.8495,,24.8504,,0.9058,79.7365,,8.123,,1.9720E+02,,9.6291E+00,,15.4007,15.3980,0.0024,,89.211,71.654,1,15.596,33.6570,5.379,234.80,2.461,0.626,2.96,0.046,0.28,0.45,4.81
CalCOFI,2007SR,054,56,2007_054d,23-Jul-2020 14:40:39,23-Jul-2020 06:40:39,33.87818,-120.13204,083.3 051.0,083.3,051.0,2.000,2.014,,15.4072,,15.4051,,15.4062,33.6581,,33.6583,33.6583,,33.6599,33.6591,5.0540,,5.2632,5.3722,4.0869,,5.8155,4.3585,4.8654,220.241,229.4215,234.5259,178.093,373.1332,190.5595,212.5427,0.1822,,1.7215,2.3468,-99.0,,-99.0,-99.0,24.8483,,24.8490,,0.9032,79.7881,,8.123,,1.9806E+02,,7.0979E+00,,15.4069,15.4048,0.0065,,88.770,71.779,,,,,,,,,,,,
CalCOFI,2007SR,054,56,2007_054d,23-Jul-2020 14:40:41,23-Jul-2020 06:40:41,33.87818,-120.13204,083.3 051.0,083.3,051.0,3.000,3.022,,15.3398,,15.3401,,15.3400,33.6517,,33.6519,33.6529,,33.6545,33.6532,5.0675,,5.2773,5.3866,4.0946,,5.8338,4.3786,4.8826,220.825,230.0311,235.1500,178.428,374.5616,191.4329,213.2915,0.1833,,1.7346,2.3638,-99.0,,-99.0,-99.0,24.8583,,24.8591,,0.8953,79.9451,,8.123,,1.9804E+02,,5.6268E+00,,15.3394,15.3396,0.0096,,88.884,71.820,,,,,,,,,,,,
CalCOFI,2007SR,054,56,2007_054d,23-Jul-2020 14:40:43,23-Jul-2020 06:40:43,33.87818,-120.13204,083.3 051.0,083.3,051.0,4.000,4.029,,15.2941,,15.2980,,15.2961,33.6493,,33.6495,33.6506,,33.6522,33.6509,5.0801,,5.2905,5.4001,4.1003,,5.8474,4.3934,4.8968,221.373,230.6032,235.7356,178.675,375.9019,192.0769,213.9063,0.1743,,1.6281,2.2246,-99.0,,-99.0,-99.0,24.8665,,24.8666,,0.8925,80.0005,,8.121,,1.9889E+02,,4.6258E+00,,15.2935,15.2974,0.0127,,89.023,71.859,,,,,,,,,,,,
CalCOFI,2007SR,054,56,2007_054d,23-Jul-2020 14:40:46,23-Jul-2020 06:40:46,33.87818,-120.13204,083.3 051.0,083.3,051.0,5.000,5.036,,15.2996,,15.3007,,15.3002,33.6503,,33.6505,33.6512,,33.6528,33.6517,5.0777,,5.2880,5.3975,4.1006,,5.8482,4.3942,4.8959,221.268,230.4936,235.6234,178.689,375.6451,192.1134,213.8684,0.1817,,1.7156,2.3390,-99.0,,-99.0,-99.0,24.8661,,24.8666,,0.8952,79.9483,,8.119,,1.9997E+02,,3.8419E+00,,15.2988,15.2999,0.0158,,88.991,71.868,,,,,,,,,,,,
CalCOFI,2007SR,054,56,2007_054d,23-Jul-2020 14:40:48,23-Jul-2020 06:40:48,33.87818,-120.13204,083.3 051.0,083.3,051.0,6.000,6.043,,15.3153,,15.3143,,15.3148,33.6514,,33.6516,33.6512,,33.6528,33.6522,5.0745,,5.2846,5.3941,4.1033,,5.8546,4.4012,4.8977,221.129,230.3485,235.4749,178.808,375.3051,192.4237,213.9493,0.1761,,1.6494,2.2524,-99.0,,-99.0,-99.0,24.8635,,24.8636,,0.8945,79.9616,,8.119,,1.9995E+02,,3.2926E+00,,15.3143,15.3134,0.0189,,88.963,71.935,6,15.408,33.6533,5.351,233.58,2.476,0.572,2.99,0.042,0.20,0.46,4.91
CalCOFI,2007SR,054,56,2007_054d,23-Jul-2020 14:40:49,23-Jul-2020 06:40:49,33.87818,-120.13204,083.3 051.0,083.3,051.0,7.000,7.050,,15.2980,,15.2954,,15.2967,33.6503,,33.6505,33.6510,,33.6526,33.6516,5.0595,,5.2690,5.3781,4.1056,,5.8601,4.4072,4.8927,220.473,229.6637,234.7738,178.909,373.7007,192.6870,213.7304,0.1795,,1.6896,2.3050,-99.0,,-99.0,-99.0,24.8665,,24.8676,,0.8922,80.0069,,8.119,,1.9995E+02,,2.8683E+00,,15.2969,15.2944,0.0220,,88.668,71.949,,,,,,,,,,,,
CalCOFI,2007SR,054,56,2007_054d,23-Jul-2020 14:40:51,23-Jul-2020 06:40:51,33.87818,-120.13204,083.3 051.0,083.3,051.0,8.000,8.058,,15.2912,,15.2940,,15.2926,33.6495,,33.6497,33.6496,,33.6512,33.6505,5.0572,,5.2666,5.3756,4.1097,,5.8699,4.4179,4.8968,220.375,229.5614,234.6691,179.087,373.4610,193.1511,213.9101,0.1804,,1.7003,2.3189,-99.0,,-99.0,-99.0,24.8675,,24.8669,,0.8938,79.9753,,8.119,,1.9995E+02,,2.4691E+00,,15.2900,15.2928,0.0251,,88.617,72.018,,,,,,,,,,,,
CalCOFI,2007SR,054,56,2007_054d,23-Jul-2020 14:40:53,23-Jul-2020 06:40:53,33.87818,-120.13204,083.3 051.0,083.3,051.0,9.000,9.065,,15.2700,,15.2637,,15.2669,33.6477,,33.6479,33.6470,,33.6486,33.6483,5.0513,,5.2604,5.3693,4.1137,,5.8794,4.4283,4.8988,220.118,229.2931,234.3945,179.260,372.8324,193.6021,213.9983,0.1800,,1.6955,2.3127,-99.0,,-99.0,-99.0,24.8708,,24.8716,,0.8905,80.0410,,8.119,,2.0166E+02,,2.1734E+00,,15.2687,15.2623,0.0282,,88.475,72.043,,,,,,,,,,,,
CalCOFI,2007SR,054,56,2007_054d,23-Jul-2020 14:40:55,23-Jul-2020 06:40:55,33.87818,-120.13204,083.3 051.0,083.3,051.0,10.000,10.072,,15.2683,,15.2708,,15.2696,33.6468,,33.6470,33.6465,,33.6481,33.6476,5.0309,,5.2391,5.3476,4.1131,,5.8780,4.4267,4.8872,219.226,228.3619,233.4413,179.235,370.6507,193.5369,213.4891,0.1806,,1.7026,2.3220,-99.0,,-99.0,-99.0,24.8704,,24.8697,,0.8882,80.0881,,8.118,,1.9996E+02,,1.9320E+00,,15.2668,15.2693,0.0313,,88.114,72.043,,,,,,,,,,,,
CalCOFI,2007SR,054,56,2007_054d,23-Jul-2020 14:40:56,23-Jul-2020 06:40:56,33.87818,-120.13204,083.3 051.0,083.3,051.0,11.000,11.079,,15.1905,,15.1836,,15.1871,33.6391,,33.6393,33.6393,,33.6409,33.6401,5.0114,,5.2187,5.3267,4.1236,,5.9031,4.4541,4.8904,218.374,227.4725,232.5308,179.691,368.5668,194.7258,213.6283,0.1814,,1.7121,2.3344,-99.0,,-99.0,-99.0,24.8817,,24.8833,,0.8788,80.2754,,8.116,,2.0010E+02,,1.7175E+00,,15.1889,15.1819,0.0344,,87.632,72.099,11,15.125,33.6446,5.300,231.36,2.118,0.525,3.20,0.045,0.18,0.48,4.89
CalCOFI,2007SR,054,56,2007_054d,23-Jul-2020 14:40:58,23-Jul-2020 06:40:58,33.87818,-120.13204,083.3 051.0,083.3,051.0,12.000,12.086,,15.1560,,15.1527,,15.1544,33.6379,,33.6381,33.6386,,33.6402,33.6392,5.0306,,5.2388,5.3472,4.1255,,5.9076,4.4590,4.9031,219.211,228.3463,233.4252,179.771,370.6140,194.9344,214.1798,0.1753,,1.6399,2.2400,-99.0,,-99.0,-99.0,24.8883,,24.8896,,0.8764,80.3245,,8.115,,2.0183E+02,,1.5453E+00,,15.1542,15.1509,0.0375,,87.908,72.087,,,,,,,,,,,,
CalCOFI,2007SR,054,56,2007_054d,23-Jul-2020 14:41:00,23-Jul-2020 06:41:00,33.87818,-120.13204,083.3 051.0,083.3,051.0,13.000,13.094,,15.0630,,15.0732,,15.0681,33.6288,,33.6290,33.6298,,33.6314,33.6302,5.0317,,5.2399,5.3484,4.1308,,5.9203,4.4728,4.9106,219.254,228.3912,233.4712,179.998,370.7192,195.5262,214.4987,0.1701,,1.5785,2.1596,-99.0,,-99.0,-99.0,24.9016,,24.9002,,0.8605,80.6445,,8.112,,2.0185E+02,,1.4261E+00,,15.0610,15.0712,0.0406,,87.759,72.061,,,,,,,,,,,,
CalCOFI,2007SR,054,56,2007_054d,23-Jul-2020 14:41:01,23-Jul-2020 06:41:01,33.87818,-120.13204,083.3 051.0,083.3,051.0,14.000,14.101,,15.1052,,15.0964,,15.1008,33.6420,,33.6422,33.6422,,33.6438,33.6430,4.9684,,5.1738,5.2808,4.1286,,5.9150,4.4671,4.8740,216.498,225.5142,230.5260,179.901,363.9784,195.2733,212.8997,0.1785,,1.6778,2.2895,-99.0,,-99.0,-99.0,24.9026,,24.9047,,0.8670,80.5126,,8.110,,2.0185E+02,,1.3203E+00,,15.1031,15.0942,0.0436,,86.735,72.061,,,,,,,,,,,,
CalCOFI,2007SR,054,56,2007_054d,23-Jul-2020 14:41:03,23-Jul-2020 06:41:03,33.87818,-120.13204,083.3 051.0,083.3,051.0,15.000,15.108,,15.1181,,15.1287,,15.1234,33.6350,,33.6352,33.6368,,33.6384,33.6368,4.8137,,5.0121,5.1156,4.1424,,5.9480,4.5030,4.8093,209.760,218.4804,223.3256,180.504,347.4982,196.8454,210.0855,0.1784,,1.6766,2.2880,-99.0,,-99.0,-99.0,24.8945,,24.8935,,0.8699,80.4552,,8.110,,2.0185E+02,,1.2104E+00,,15.1158,15.1265,0.0467,,84.054,72.346,,,,,,,,,,,,
CalCOFI,2007SR,054,56,2007_054d,23-Jul-2020 14:41:05,23-Jul-2020 06:41:05,33.87818,-120.13204,083.3 051.0,083.3,051.0,16.000,16.115,,14.8696,,14.8740,,14.8718,33.6252,,33.6254,33.6171,,33.6187,33.6221,4.4478,,4.6298,4.7249,4.1830,,6.0449,4.6088,4.6669,193.804,201.8239,206.2746,182.269,308.4721,201.4471,203.8609,0.1764,,1.6530,2.2571,2.1722E-08,,0.0000,-99.0,24.9408,,24.9336,,0.8589,80.6778,,8.110,,2.0185E+02,,1.1157E+00,,14.8672,14.8716,0.0498,,77.278,72.677,,,,,,,,,,,,
CalCOFI,2007SR,054,56,2007_054d,23-Jul-2020 14:41:07,23-Jul-2020 06:41:07,33.87818,-120.13204,083.3 051.0,083.3,051.0,17.000,17.123,,14.3728,,14.4432,,14.4080,33.6070,,33.6072,33.6114,,33.6130,33.6101,4.1969,,4.3676,4.4570,4.2300,,6.1571,4.7312,4.5941,182.858,190.3974,194.5774,184.299,281.6997,206.7397,200.6586,0.1281,,1.0825,1.5101,3.7987E-07,,0.0000,-99.0,25.0321,,25.0213,,0.8193,81.5023,,8.083,,2.0185E+02,,1.0338E+00,,14.3704,14.4407,0.0528,,72.190,72.857,,,,,,,,,,,,
CalCOFI,2007SR,054,56,2007_054d,23-Jul-2020 14:41:09,23-Jul-2020 06:41:09,33.87818,-120.13204,083.3 051.0,083.3,051.0,18.000,18.130,,13.1319,,13.2777,,13.2048,33.6181,,33.6183,33.6179,,33.6195,33.6189,4.1932,,4.3638,4.4531,4.3050,,6.3361,4.9265,4.6898,182.646,190.1761,194.3509,187.522,281.1812,215.1427,204.7468,0.1061,,0.8232,1.1699,-99.0,,-99.0,-99.0,25.2968,,25.2673,,0.7485,82.9324,,8.046,,2.0185E+02,,9.7795E-01,,13.1295,13.2752,0.0556,,70.325,72.418,,,,,,,,,,,,
CalCOFI,2007SR,054,56,2007_054d,23-Jul-2020 14:41:11,23-Jul-2020 06:41:11,33.87818,-120.13204,083.3 051.0,083.3,051.0,19.000,19.137,,12.8868,,12.8868,,12.8868,33.6190,,33.6192,33.6208,,33.6224,33.6208,4.2083,,4.3796,4.4692,4.3077,,6.3426,4.9335,4.7014,183.299,190.8577,195.0487,187.628,282.7784,215.4191,205.2339,0.1043,,0.8020,1.1420,-99.0,,-99.0,-99.0,25.3460,,25.3474,,0.7901,82.0810,,8.026,,2.0185E+02,,9.4348E-01,,12.8843,12.8843,0.0582,,70.225,71.884,,,,,,,,,,,,
CalCOFI,2007SR,054,56,2007_054d,23-Jul-2020 14:41:13,23-Jul-2020 06:41:13,33.87818,-120.13204,083.3 051.0,083.3,051.0,20.000,20.145,,12.8773,,12.8787,,12.8780,33.6280,,33.6282,33.6304,,33.6320,33.6301,4.1993,,4.3701,4.4596,4.2822,,6.2817,4.8671,4.6634,182.904,190.4454,194.6266,186.514,281.8122,212.5147,203.5707,0.1079,,0.8444,1.1977,-99.0,,-99.0,-99.0,25.3549,,25.3565,,0.7476,82.9531,,8.016,,2.0360E+02,,9.1213E-01,,12.8747,12.8760,0.0609,,70.064,71.451,,,,,,,,,,,,
CalCOFI,2007SR,054,56,2007_054d,23-Jul-2020 14:41:15,23-Jul-2020 06:41:15,33.87818,-120.13204,083.3 051.0,083.3,051.0,21.000,21.152,,12.8609,,12.8623,,12.8616,33.6309,,33.6311,33.6335,,33.6351,33.6331,4.1752,,4.3450,4.4338,4.2559,,6.2189,4.7986,4.6162,181.853,189.3482,193.5035,185.366,279.2416,209.5216,201.5126,0.1077,,0.8421,1.1946,-99.0,,-99.0,-99.0,25.3604,,25.3621,,0.7469,82.9680,,8.009,,2.0376E+02,,8.7635E-01,,12.8580,12.8595,0.0635,,69.640,70.989,21,12.846,33.6382,4.380,191.19,0.992,0.459,8.44,0.069,0.10,0.90,9.23
CalCOFI,2007SR,054,56,2007_054d,23-Jul-2020 14:41:17,23-Jul-2020 06:41:17,33.87818,-120.13204,083.3 051.0,083.3,051.0,22.000,22.159,,12.8358,,12.8450,,12.8404,33.6419,,33.6421,33.6443,,33.6459,33.6440,4.1094,,4.2762,4.3636,4.2304,,6.1580,4.7322,4.5479,178.983,186.3523,190.4365,184.253,272.2220,206.6198,198.5282,0.1097,,0.8656,1.2255,-99.0,,-99.0,-99.0,25.3739,,25.3739,,0.8839,80.2246,,8.004,,2.0376E+02,,8.2206E-01,,12.8328,12.8420,0.0661,,68.511,70.543,,,,,,,,,,,,
CalCOFI,2007SR,054,56,2007_054d,23-Jul-2020 14:41:19,23-Jul-2020 06:41:19,33.87818,-120.13204,083.3 051.0,083.3,051.0,23.000,23.166,,12.7945,,12.8072,,12.8009,33.6633,,33.6635,33.6657,,33.6673,33.6654,3.9928,,4.1544,4.2391,4.2146,,6.1203,4.6911,4.4651,173.900,181.0461,185.0047,183.563,259.7897,204.8208,194.9128,0.1129,,0.9033,1.2750,-99.0,,-99.0,-99.0,25.3986,,25.3979,,0.9256,79.3768,,7.999,,2.0376E+02,,7.6377E-01,,12.7914,12.8041,0.0687,,66.519,70.234,,,,,,,,,,,,
CalCOFI,2007SR,054,56,2007_054d,23-Jul-2020 14:41:21,23-Jul-2020 06:41:21,33.87818,-120.13204,083.3 051.0,083.3,051.0,24.000,24.174,,12.6341,,12.6053,,12.6197,33.6663,,33.6665,33.6654,,33.6670,33.6668,3.9437,,4.1031,4.1866,4.2039,,6.0948,4.6632,4.4249,171.756,178.8080,182.7135,183.089,254.5458,203.5850,193.1493,0.1017,,0.7714,1.1018,-99.0,,-99.0,-99.0,25.4323,,25.4372,,0.8690,80.5171,,7.992,,2.0376E+02,,7.0633E-01,,12.6309,12.6021,0.0713,,65.484,69.763,,,,,,,,,,,,
CalCOFI,2007SR,054,56,2007_054d,23-Jul-2020 14:41:22,23-Jul-2020 06:41:22,33.87818,-120.13204,083.3 051.0,083.3,051.0,25.000,25.181,,12.4295,,12.4155,,12.4225,33.6662,,33.6664,33.6679,,33.6695,33.6680,3.9396,,4.0988,4.1823,4.1974,,6.0793,4.6463,4.4143,171.574,178.6180,182.5191,182.799,254.1007,202.8289,192.6740,0.0935,,0.6748,0.9750,-99.0,,-99.0,-99.0,25.4720,,25.4759,,0.7413,83.0836,,7.984,,2.0552E+02,,6.6265E-01,,12.4262,12.4122,0.0738,,65.139,69.382,,,,,,,,,,,,
CalCOFI,2007SR,054,56,2007_054d,23-Jul-2020 14:41:24,23-Jul-2020 06:41:24,33.87818,-120.13204,083.3 051.0,083.3,051.0,26.000,26.188,,12.3991,,12.4026,,12.4009,33.6664,,33.6666,33.6751,,33.6767,33.6717,3.9355,,4.0945,4.1779,4.1774,,6.0315,4.5942,4.3861,171.393,178.4291,182.3256,181.926,253.6580,200.5529,191.4393,0.0951,,0.6936,0.9997,-99.0,,-99.0,-99.0,25.4780,,25.4841,,0.7377,83.1593,,7.978,,2.0479E+02,,6.2140E-01,,12.3957,12.3992,0.0764,,65.030,69.035,,,,,,,,,,,,
CalCOFI,2007SR,054,56,2007_054d,23-Jul-2020 14:41:27,23-Jul-2020 06:41:27,33.87818,-120.13204,083.3 051.0,083.3,051.0,27.000,27.196,,12.3687,,12.3684,,12.3686,33.6695,,33.6697,33.6746,,33.6762,33.6730,3.8711,,4.0272,4.1091,4.1511,,5.9687,4.5257,4.3174,168.587,175.4999,179.3271,180.779,246.7949,197.5624,188.4448,0.0953,,0.6960,1.0028,-99.0,,-99.0,-99.0,25.4862,,25.4903,,0.7960,81.9772,,7.972,,2.0380E+02,,5.7178E-01,,12.3652,12.3649,0.0789,,63.927,68.552,,,,,,,,,,,,
CalCOFI,2007SR,054,56,2007_054d,23-Jul-2020 14:41:29,23-Jul-2020 06:41:29,33.87818,-120.13204,083.3 051.0,083.3,051.0,28.000,28.203,,12.3526,,12.3531,,12.3529,33.6695,,33.6697,33.6713,,33.6729,33.6713,3.5746,,3.7174,3.7925,4.1611,,5.9926,4.5517,4.1721,155.673,162.0189,165.5268,181.216,215.2091,198.7018,182.1143,0.0952,,0.6948,1.0013,-99.0,,-99.0,-99.0,25.4894,,25.4907,,0.7440,83.0307,,7.968,,2.0568E+02,,5.3668E-01,,12.3490,12.3494,0.0814,,59.010,68.694,,,,,,,,,,,,
CalCOFI,2007SR,054,56,2007_054d,23-Jul-2020 14:41:30,23-Jul-2020 06:41:30,33.87818,-120.13204,083.3 051.0,083.3,051.0,29.000,29.210,,12.1286,,12.1387,,12.1337,33.6678,,33.6680,33.6683,,33.6699,33.6690,3.3991,,3.5340,3.6051,4.1638,,5.9990,4.5588,4.0820,148.023,154.0331,157.3518,181.327,196.4983,198.9912,178.1715,0.0839,,0.5618,0.8265,2.5801E-07,,0.0000,-99.0,25.5307,,25.5291,,0.7820,82.2641,,7.960,,2.0566E+02,,5.0702E-01,,12.1248,12.1349,0.0839,,55.851,68.429,,,,,,,,,,,,
CalCOFI,2007SR,054,56,2007_054d,23-Jul-2020 14:41:32,23-Jul-2020 06:41:32,33.87818,-120.13204,083.3 051.0,083.3,051.0,30.000,30.217,,11.4781,,11.4752,,11.4767,33.7139,,33.7141,33.7232,,33.7248,33.7195,3.3371,,3.4692,3.5389,4.2017,,6.0895,4.6575,4.0982,145.301,151.1916,154.4430,182.948,189.8407,203.2174,178.8302,0.0658,,0.3489,0.5466,5.4595E-09,,0.0000,-99.0,25.6880,,25.6958,,0.7128,83.6777,,7.944,,2.0566E+02,,4.8588E-01,,11.4744,11.4714,0.0863,,54.102,68.118,30,12.892,,3.975,173.51,0.772,0.322,12.06,0.051,0.09,1.14,12.88
CalCOFI,2007SR,054,56,2007_054d,23-Jul-2020 14:41:34,23-Jul-2020 06:41:34,33.87818,-120.13204,083.3 051.0,083.3,051.0,31.000,31.225,,11.1991,,11.1979,,11.1985,33.7280,,33.7282,33.7460,,33.7476,33.7379,3.2504,,3.3786,3.4463,4.1970,,6.0783,4.6452,4.0458,141.518,147.2425,150.4004,182.729,180.5880,202.6464,176.5234,0.0541,,0.2114,0.3657,-99.0,,-99.0,-99.0,25.7498,,25.7641,,0.6945,84.0621,,7.924,,2.0566E+02,,4.5415E-01,,11.1953,11.1941,0.0886,,52.390,67.652,,,,,,,,,,,,
CalCOFI,2007SR,054,56,2007_054d,23-Jul-2020 14:41:36,23-Jul-2020 06:41:36,33.87818,-120.13204,083.3 051.0,083.3,051.0,32.000,32.232,,10.9471,,10.9334,,10.9403,33.7391,,33.7393,33.7483,,33.7499,33.7446,3.1927,,3.3184,3.3847,4.1788,,6.0348,4.5978,3.9913,139.001,144.6150,147.7107,181.928,174.4317,200.5581,174.1344,0.0497,,0.1597,0.2976,-99.0,,-99.0,-99.0,25.8038,,25.8134,,0.6887,84.1833,,7.906,,2.0566E+02,,4.3519E-01,,10.9432,10.9296,0.0908,,51.187,66.981,,,,,,,,,,,,
CalCOFI,2007SR,054,56,2007_054d,23-Jul-2020 14:41:39,23-Jul-2020 06:41:39,33.87818,-120.13204,083.3 051.0,083.3,051.0,33.000,33.239,,10.7828,,10.7776,,10.7802,33.7585,,33.7587,33.7607,,33.7623,33.7605,3.1658,,3.2902,3.3560,4.1494,,5.9647,4.5213,3.9387,137.822,143.3843,146.4508,180.643,171.5481,197.2079,171.8294,0.0466,,0.1233,0.2497,-99.0,,-99.0,-99.0,25.8481,,25.8507,,0.6890,84.1768,,7.891,,2.0566E+02,,4.2056E-01,,10.7789,10.7736,0.0930,,50.584,66.293,,,,,,,,,,,,
CalCOFI,2007SR,054,56,2007_054d,23-Jul-2020 14:41:41,23-Jul-2020 06:41:41,33.87818,-120.13204,083.3 051.0,083.3,051.0,34.000,34.247,,10.7354,,10.7310,,10.7332,33.7726,,33.7728,33.7752,,33.7768,33.7748,3.1560,,3.2800,3.3455,4.1166,,5.8864,4.4359,3.8907,137.394,142.9375,145.9934,179.213,170.5013,193.4796,169.7365,0.0492,,0.1538,0.2899,-99.0,,-99.0,-99.0,25.8674,,25.8702,,0.6971,84.0064,,7.882,,2.0566E+02,,4.0765E-01,,10.7313,10.7269,0.0951,,50.380,65.710,,,,,,,,,,,,
CalCOFI,2007SR,054,56,2007_054d,23-Jul-2020 14:41:43,23-Jul-2020 06:41:43,33.87818,-120.13204,083.3 051.0,083.3,051.0,35.000,35.254,,10.7316,,10.7300,,10.7308,33.7781,,33.7783,33.7827,,33.7843,33.7813,3.1476,,3.2712,3.3366,4.0792,,5.7971,4.3385,3.8376,137.026,142.5533,145.6002,177.583,169.6012,189.2298,167.4150,0.0476,,0.1350,0.2652,-99.0,,-99.0,-99.0,25.8724,,25.8763,,0.6971,84.0057,,7.876,,2.0566E+02,,3.8981E-01,,10.7274,10.7258,0.0973,,50.243,65.115,,,,,,,,,,,,
CalCOFI,2007SR,054,56,2007_054d,23-Jul-2020 14:41:45,23-Jul-2020 06:41:45,33.87818,-120.13204,083.3 051.0,083.3,051.0,36.000,36.262,,10.7227,,10.7204,,10.7216,33.7812,,33.7814,33.7837,,33.7853,33.7834,3.1273,,3.2500,3.3149,4.0437,,5.7123,4.2460,3.7805,136.141,141.6295,144.6544,176.036,167.4366,185.1965,164.9255,0.0503,,0.1667,0.3069,-99.0,,-99.0,-99.0,25.8764,,25.8788,,0.6989,83.9678,,7.870,,2.0649E+02,,3.6768E-01,,10.7184,10.7161,0.0994,,49.911,64.535,,,,,,,,,,,,
CalCOFI,2007SR,054,56,2007_054d,23-Jul-2020 14:41:47,23-Jul-2020 06:41:47,33.87818,-120.13204,083.3 051.0,083.3,051.0,37.000,37.269,,10.7100,,10.7086,,10.7093,33.7853,,33.7855,33.7877,,33.7893,33.7874,3.0708,,3.1910,3.2545,4.0150,,5.6438,4.1713,3.7129,133.682,139.0625,142.0267,174.785,161.4222,181.9349,161.9808,0.0503,,0.1667,0.3069,-99.0,,-99.0,-99.0,25.8819,,25.8840,,0.6990,83.9662,,7.866,,2.0756E+02,,3.4364E-01,,10.7056,10.7042,0.1016,,48.998,64.062,,,,,,,,,,,,
CalCOFI,2007SR,054,56,2007_054d,23-Jul-2020 14:41:49,23-Jul-2020 06:41:49,33.87818,-120.13204,083.3 051.0,083.3,051.0,38.000,38.276,,10.6440,,10.6531,,10.6486,33.7921,,33.7923,33.7929,,33.7945,33.7934,2.9993,,3.1163,3.1782,4.0003,,5.6087,4.1330,3.6556,130.567,135.8108,138.6979,174.144,153.8034,180.2637,159.4808,0.0502,,0.1656,0.3054,-99.0,,-99.0,-99.0,25.8987,,25.8978,,0.6987,83.9728,,7.860,,2.0757E+02,,3.1600E-01,,10.6395,10.6485,0.1037,,47.791,63.754,,,,,,,,,,,,
CalCOFI,2007SR,054,56,2007_054d,23-Jul-2020 14:41:51,23-Jul-2020 06:41:51,33.87818,-120.13204,083.3 051.0,083.3,051.0,39.000,39.284,,10.4614,,10.4791,,10.4703,33.8081,,33.8083,33.8095,,33.8111,33.8097,2.9330,,3.0470,3.1074,3.9897,,5.5834,4.1054,3.6064,127.676,132.7929,135.6085,173.675,146.7324,179.0410,157.3248,0.0399,,0.0446,0.1461,-99.0,,-99.0,-99.0,25.9431,,25.9411,,0.6884,84.1898,,7.853,,2.0757E+02,,2.8918E-01,,10.4568,10.4745,0.1058,,46.556,63.354,,,,,,,,,,,,
CalCOFI,2007SR,054,56,2007_054d,23-Jul-2020 14:41:53,23-Jul-2020 06:41:53,33.87818,-120.13204,083.3 051.0,083.3,051.0,40.000,40.291,,10.2861,,10.2887,,10.2874,33.8164,,33.8166,33.8184,,33.8200,33.8183,2.8846,,2.9964,3.0557,3.9690,,5.5340,4.0515,3.5536,125.562,130.5861,133.3494,172.767,141.5619,176.6736,155.0115,0.0369,,0.0094,0.0997,-99.0,,-99.0,-99.0,25.9798,,25.9809,,0.6767,84.4373,,7.846,,2.0757E+02,,2.6437E-01,,10.2815,10.2841,0.1078,,45.616,62.770,40,10.208,33.8472,2.962,129.27,0.060,0.113,21.13,0.034,0.00,1.72,22.49
CalCOFI,2007SR,054,56,2007_054d,23-Jul-2020 14:41:55,23-Jul-2020 06:41:55,33.87818,-120.13204,083.3 051.0,083.3,051.0,41.000,41.298,,10.1733,,10.1744,,10.1739,33.8359,,33.8361,33.8380,,33.8396,33.8379,2.8696,,2.9807,3.0397,3.9554,,5.5015,4.0161,3.5279,124.905,129.9002,132.6473,172.168,139.9549,175.1119,153.8796,0.0357,,,0.0811,-99.0,,-99.0,-99.0,26.0143,,26.0158,,0.6711,84.5545,,7.840,,2.0757E+02,,2.4839E-01,,10.1686,10.1696,0.1099,,45.274,62.408,,,,,,,,,,,,
CalCOFI,2007SR,054,56,2007_054d,23-Jul-2020 14:41:57,23-Jul-2020 06:41:57,33.87818,-120.13204,083.3 051.0,083.3,051.0,42.000,42.306,,10.1331,,10.1357,,10.1344,33.8443,,33.8445,33.8478,,33.8494,33.8470,2.8445,,2.9545,3.0129,3.9308,,5.4428,3.9520,3.4825,123.814,128.7613,131.4815,171.096,137.2865,172.3170,151.8993,0.0354,,,0.0765,-99.0,,-99.0,-99.0,26.0278,,26.0301,,0.6709,84.5580,,7.834,,2.0761E+02,,2.4107E-01,,10.1283,10.1309,0.1119,,44.843,61.972,,,,,,,,,,,,
CalCOFI,2007SR,054,56,2007_054d,23-Jul-2020 14:41:59,23-Jul-2020 06:41:59,33.87818,-120.13204,083.3 051.0,083.3,051.0,43.000,43.313,,10.0921,,10.0942,,10.0932,33.8526,,33.8528,33.8548,,33.8564,33.8546,2.8265,,2.9357,2.9937,3.9072,,5.3865,3.8906,3.4422,123.026,127.9387,130.6394,170.066,135.3592,169.6316,150.1355,0.0352,,,0.0734,-99.0,,-99.0,-99.0,26.0412,,26.0426,,0.6728,84.5189,,7.828,,2.0949E+02,,2.3661E-01,,10.0872,10.0892,0.1138,,44.520,61.547,,,,,,,,,,,,
CalCOFI,2007SR,054,56,2007_054d,23-Jul-2020 14:42:01,23-Jul-2020 06:42:01,33.87818,-120.13204,083.3 051.0,083.3,051.0,44.000,44.320,,10.0571,,10.0582,,10.0577,33.8602,,33.8604,33.8621,,33.8637,33.8621,2.8227,,2.9317,2.9896,3.8821,,5.3265,3.8252,3.4074,122.861,127.7665,130.4631,168.971,134.9556,166.7767,148.6199,0.0353,,,0.0749,-99.0,,-99.0,-99.0,26.0531,,26.0544,,0.6748,84.4756,,7.824,,2.0947E+02,,2.2423E-01,,10.0521,10.0532,0.1158,,44.430,61.106,,,,,,,,,,,,
CalCOFI,2007SR,054,56,2007_054d,23-Jul-2020 14:42:03,23-Jul-2020 06:42:03,33.87818,-120.13204,083.3 051.0,083.3,051.0,45.000,45.328,,10.0404,,10.0407,,10.0406,33.8645,,33.8647,33.8666,,33.8682,33.8665,2.8124,,2.9210,2.9786,3.8547,,5.2611,3.7539,3.3663,122.410,127.2957,129.9811,167.781,133.8525,163.6742,146.8277,0.0348,,,0.0672,-99.0,,-99.0,-99.0,26.0593,,26.0609,,0.6689,84.6011,,7.821,,2.0947E+02,,2.1395E-01,,10.0353,10.0356,0.1178,,44.252,60.655,,,,,,,,,,,,
CalCOFI,2007SR,054,56,2007_054d,23-Jul-2020 14:42:06,23-Jul-2020 06:42:06,33.87818,-120.13204,083.3 051.0,083.3,051.0,46.000,46.335,,10.0258,,10.0283,,10.0271,33.8678,,33.8680,33.8692,,33.8708,33.8694,2.8058,,2.9141,2.9716,3.8275,,5.1962,3.6830,3.3273,122.122,126.9951,129.6733,166.595,133.1481,160.5820,145.1277,0.0344,,,0.0610,-99.0,,-99.0,-99.0,26.0644,,26.0651,,0.6663,84.6560,,7.817,,2.0947E+02,,1.9700E-01,,10.0205,10.0230,0.1198,,44.135,60.211,,,,,,,,,,,,
CalCOFI,2007SR,054,56,2007_054d,23-Jul-2020 14:42:08,23-Jul-2020 06:42:08,33.87818,-120.13204,083.3 051.0,083.3,051.0,47.000,47.343,,10.0105,,10.0104,,10.0105,33.8720,,33.8722,33.8740,,33.8756,33.8739,2.8033,,2.9115,2.9689,3.8072,,5.1477,3.6302,3.2996,122.015,126.8834,129.5590,165.711,132.8864,158.2773,143.9182,0.0340,,,0.0548,-99.0,,-99.0,-99.0,26.0703,,26.0719,,0.6632,84.7208,,7.815,,2.0947E+02,,1.9438E-01,,10.0051,10.0050,0.1217,,44.083,59.871,,,,,,,,,,,,
CalCOFI,2007SR,054,56,2007_054d,23-Jul-2020 14:42:10,23-Jul-2020 06:42:10,33.87818,-120.13204,083.3 051.0,083.3,051.0,48.000,48.350,,10.0093,,10.0097,,10.0095,33.8725,,33.8727,33.8744,,33.8760,33.8744,2.7841,,2.8914,2.9484,3.7832,,5.0904,3.5677,3.2581,121.177,126.0086,128.6635,164.664,130.8368,155.5476,142.1056,0.0340,,,0.0548,-99.0,,-99.0,-99.0,26.0709,,26.0723,,0.6647,84.6910,,7.811,,2.1121E+02,,1.8068E-01,,10.0038,10.0043,0.1237,,43.779,59.492,,,,,,,,,,,,
CalCOFI,2007SR,054,56,2007_054d,23-Jul-2020 14:42:12,23-Jul-2020 06:42:12,33.87818,-120.13204,083.3 051.0,083.3,051.0,49.000,49.358,,9.9836,,9.9855,,9.9846,33.8768,,33.8770,33.8782,,33.8798,33.8784,2.7555,,2.8615,2.9179,3.7670,,5.0518,3.5255,3.2217,119.934,124.7110,127.3352,163.957,127.7966,153.7043,140.5198,0.0340,,,0.0548,-99.0,,-99.0,-99.0,26.0786,,26.0794,,0.6648,84.6873,,7.812,,2.1041E+02,,1.7512E-01,,9.9780,9.9799,0.1256,,43.308,59.207,,,,,,,,,,,,